Time,TemperatureF,DewpointF,PressureIn,WindDirection,WindDirectionDegrees,WindSpeedMPH,WindSpeedGustMPH,Humidity,HourlyPrecipIn,Conditions,Clouds,dailyrainin,SoftwareType,DateUTC
2013-02-10 00:04:00,38.0,0.0,29.99,SW,236,17.0,21.0,44,-99.99,,,-99.99,,2013-02-10 08:04:00,
2013-02-10 00:12:00,38.0,0.0,29.99,WNW,286,10.0,21.0,46,-99.99,,,-99.99,,2013-02-10 08:12:00,
2013-02-10 00:20:00,37.0,0.0,29.99,NW,316,17.0,21.0,45,-99.99,,,-99.99,,2013-02-10 08:20:00,
2013-02-10 00:28:00,37.0,0.0,29.99,West,271,10.0,22.0,47,-99.99,,,-99.99,,2013-02-10 08:28:00,
2013-02-10 00:36:00,37.0,0.0,29.99,NW,310,21.0,21.0,47,-99.99,,,-99.99,,2013-02-10 08:36:00,
2013-02-10 00:44:00,36.0,0.0,30.00,WSW,256,18.0,21.0,46,-99.99,,,-99.99,,2013-02-10 08:44:00,
2013-02-10 00:52:00,36.0,0.0,29.99,WNW,285,14.0,22.0,49,-99.99,,,-99.99,,2013-02-10 08:52:00,
2013-02-10 01:00:00,36.0,0.0,29.99,WNW,294,17.0,22.0,48,-99.99,,,-99.99,,2013-02-10 09:00:00,
2013-02-10 01:08:00,36.0,0.0,29.99,NW,319,16.0,22.0,48,-99.99,,,-99.99,,2013-02-10 09:08:00,
2013-02-10 01:16:00,37.0,0.0,29.99,West,268,20.0,21.0,45,-99.99,,,-99.99,,2013-02-10 09:16:00,
2013-02-10 01:24:00,36.0,0.0,29.99,NNW,329,16.0,22.0,48,-99.99,,,-99.99,,2013-02-10 09:24:00,
2013-02-10 01:32:00,36.0,0.0,29.99,West,281,13.0,22.0,48,-99.99,,,-99.99,,2013-02-10 09:32:00,
2013-02-10 01:40:00,36.0,0.0,29.99,NW,315,20.0,23.0,46,-99.99,,,-99.99,,2013-02-10 09:40:00,
2013-02-10 01:48:00,36.0,0.0,29.99,NW,316,21.0,22.0,49,-99.99,,,-99.99,,2013-02-10 09:48:00,
2013-02-10 01:56:00,36.0,0.0,29.99,WNW,289,17.0,22.0,48,-99.99,,,-99.99,,2013-02-10 09:56:00,
2013-02-10 02:04:00,36.0,0.0,29.99,WNW,301,20.0,22.0,49,-99.99,,,-99.99,,2013-02-10 10:04:00,
2013-02-10 02:12:00,36.0,0.0,29.99,NW,309,15.0,22.0,49,-99.99,,,-99.99,,2013-02-10 10:12:00,
2013-02-10 02:20:00,35.0,0.0,29.99,WNW,290,12.0,22.0,49,-99.99,,,-99.99,,2013-02-10 10:20:00,
2013-02-10 02:28:00,35.0,0.0,29.99,NW,310,10.0,18.0,52,-99.99,,,-99.99,,2013-02-10 10:28:00,
2013-02-10 02:36:00,34.0,0.0,29.99,West,267,14.0,20.0,53,-99.99,,,-99.99,,2013-02-10 10:36:00,
2013-02-10 02:44:00,34.0,0.0,29.99,WNW,284,10.0,16.0,51,-99.99,,,-99.99,,2013-02-10 10:44:00,
2013-02-10 02:52:00,33.0,0.0,29.99,NW,310,12.0,13.0,51,-99.99,,,-99.99,,2013-02-10 10:52:00,
2013-02-10 03:00:00,33.0,0.0,29.98,WNW,292,14.0,17.0,54,-99.99,,,-99.99,,2013-02-10 11:00:00,
2013-02-10 03:08:00,33.0,0.0,29.99,NW,311,12.0,15.0,54,-99.99,,,-99.99,,2013-02-10 11:08:00,
2013-02-10 03:16:00,32.0,0.0,29.98,NW,320,14.0,14.0,53,-99.99,,,-99.99,,2013-02-10 11:16:00,
2013-02-10 03:24:00,32.0,0.0,29.98,WNW,298,12.0,13.0,53,-99.99,,,-99.99,,2013-02-10 11:24:00,
2013-02-10 03:32:00,33.0,0.0,29.98,WNW,302,13.0,14.0,53,-99.99,,,-99.99,,2013-02-10 11:32:00,
2013-02-10 03:40:00,33.0,0.0,29.98,NW,321,10.0,12.0,53,-99.99,,,-99.99,,2013-02-10 11:40:00,
2013-02-10 03:48:00,33.0,0.0,29.98,NW,309,13.0,14.0,51,-99.99,,,-99.99,,2013-02-10 11:48:00,
2013-02-10 03:56:00,33.0,0.0,29.98,NW,312,16.0,17.0,52,-99.99,,,-99.99,,2013-02-10 11:56:00,
2013-02-10 04:04:00,33.0,0.0,29.98,NW,309,6.0,9.0,51,-99.99,,,-99.99,,2013-02-10 12:04:00,
2013-02-10 04:12:00,32.0,0.0,29.98,NW,305,0.0,0.0,53,-99.99,,,-99.99,,2013-02-10 12:12:00,
2013-02-10 04:20:00,31.0,0.0,29.98,NW,306,1.0,1.0,55,-99.99,,,-99.99,,2013-02-10 12:20:00,
2013-02-10 04:28:00,30.0,0.0,29.98,NW,312,12.0,12.0,56,-99.99,,,-99.99,,2013-02-10 12:28:00,
2013-02-10 04:36:00,30.0,0.0,29.98,NW,308,13.0,14.0,56,-99.99,,,-99.99,,2013-02-10 12:36:00,
2013-02-10 04:44:00,30.0,0.0,29.98,WNW,300,12.0,14.0,60,-99.99,,,-99.99,,2013-02-10 12:44:00,
2013-02-10 04:52:00,30.0,0.0,29.98,WNW,295,9.0,12.0,58,-99.99,,,-99.99,,2013-02-10 12:52:00,
2013-02-10 05:00:00,29.0,0.0,29.99,NW,318,0.0,0.0,56,-99.99,,,-99.99,,2013-02-10 13:00:00,
2013-02-10 05:08:00,30.0,0.0,29.99,NW,314,2.0,8.0,57,-99.99,,,-99.99,,2013-02-10 13:08:00,
2013-02-10 05:16:00,30.0,0.0,29.99,WNW,287,5.0,10.0,56,-99.99,,,-99.99,,2013-02-10 13:16:00,
2013-02-10 05:24:00,30.0,0.0,29.99,WNW,302,5.0,9.0,57,-99.99,,,-99.99,,2013-02-10 13:24:00,
2013-02-10 05:32:00,30.0,0.0,29.99,NW,310,14.0,16.0,59,-99.99,,,-99.99,,2013-02-10 13:32:00,
2013-02-10 05:40:00,30.0,0.0,29.99,NW,311,12.0,14.0,60,-99.99,,,-99.99,,2013-02-10 13:40:00,
2013-02-10 05:48:00,30.0,0.0,29.99,West,276,9.0,9.0,59,-99.99,,,-99.99,,2013-02-10 13:48:00,
2013-02-10 05:56:00,29.0,0.0,29.99,WNW,301,5.0,9.0,58,-99.99,,,-99.99,,2013-02-10 13:56:00,
2013-02-10 06:04:00,28.0,0.0,29.99,WNW,296,0.0,8.0,61,-99.99,,,-99.99,,2013-02-10 14:04:00,
2013-02-10 06:12:00,28.0,0.0,29.99,NW,312,0.0,3.0,61,-99.99,,,-99.99,,2013-02-10 14:12:00,
2013-02-10 06:20:00,28.0,0.0,29.99,NW,313,0.0,2.0,60,-99.99,,,-99.99,,2013-02-10 14:20:00,
2013-02-10 06:28:00,27.0,0.0,29.99,NW,320,0.0,3.0,61,-99.99,,,-99.99,,2013-02-10 14:28:00,
2013-02-10 06:36:00,27.0,0.0,29.99,NW,315,9.0,12.0,61,-99.99,,,-99.99,,2013-02-10 14:36:00,
2013-02-10 06:44:00,28.0,0.0,29.99,NW,310,0.0,8.0,62,-99.99,,,-99.99,,2013-02-10 14:44:00,
2013-02-10 06:52:00,28.0,0.0,29.99,West,260,0.0,10.0,62,-99.99,,,-99.99,,2013-02-10 14:52:00,
2013-02-10 07:00:00,28.0,0.0,30.00,NW,317,6.0,10.0,62,-99.99,,,-99.99,,2013-02-10 15:00:00,
2013-02-10 07:08:00,30.0,0.0,30.00,WSW,254,9.0,13.0,58,-99.99,,,-99.99,,2013-02-10 15:08:00,
2013-02-10 07:16:00,30.0,0.0,30.00,WNW,297,9.0,14.0,57,-99.99,,,-99.99,,2013-02-10 15:16:00,
2013-02-10 07:24:00,32.0,0.0,30.01,NW,316,12.0,12.0,53,-99.99,,,-99.99,,2013-02-10 15:24:00,
2013-02-10 07:32:00,32.0,0.0,30.01,NW,317,6.0,10.0,53,-99.99,,,-99.99,,2013-02-10 15:32:00,
2013-02-10 07:40:00,34.0,0.0,30.01,WNW,298,0.0,0.0,50,-99.99,,,-99.99,,2013-02-10 15:40:00,
2013-02-10 07:48:00,34.0,0.0,30.01,NW,311,7.0,7.0,52,-99.99,,,-99.99,,2013-02-10 15:48:00,
2013-02-10 07:56:00,36.0,0.0,30.01,NW,307,10.0,12.0,48,-99.99,,,-99.99,,2013-02-10 15:56:00,
2013-02-10 08:04:00,37.0,0.0,30.01,NW,313,9.0,15.0,47,-99.99,,,-99.99,,2013-02-10 16:04:00,
2013-02-10 08:12:00,38.0,0.0,30.01,NW,309,5.0,13.0,47,-99.99,,,-99.99,,2013-02-10 16:12:00,
2013-02-10 08:20:00,38.0,0.0,30.02,NW,306,7.0,9.0,46,-99.99,,,-99.99,,2013-02-10 16:20:00,
2013-02-10 08:28:00,38.0,0.0,30.02,NW,304,12.0,13.0,45,-99.99,,,-99.99,,2013-02-10 16:28:00,
2013-02-10 08:36:00,39.0,0.0,30.02,NW,308,10.0,13.0,42,-99.99,,,-99.99,,2013-02-10 16:36:00,
2013-02-10 08:44:00,40.0,0.0,30.02,NW,305,10.0,13.0,40,-99.99,,,-99.99,,2013-02-10 16:44:00,
2013-02-10 08:52:00,40.0,0.0,30.02,WNW,290,2.0,9.0,40,-99.99,,,-99.99,,2013-02-10 16:52:00,
2013-02-10 09:00:00,42.0,0.0,30.02,West,272,7.0,9.0,39,-99.99,,,-99.99,,2013-02-10 17:00:00,
2013-02-10 09:08:00,42.0,0.0,30.02,West,273,0.0,3.0,41,-99.99,,,-99.99,,2013-02-10 17:08:00,
2013-02-10 09:16:00,42.0,0.0,30.02,SW,229,2.0,8.0,39,-99.99,,,-99.99,,2013-02-10 17:16:00,
2013-02-10 09:24:00,42.0,0.0,30.02,West,262,0.0,7.0,39,-99.99,,,-99.99,,2013-02-10 17:24:00,
2013-02-10 09:32:00,45.0,0.0,30.02,West,263,0.0,0.0,36,-99.99,,,-99.99,,2013-02-10 17:32:00,
2013-02-10 09:40:00,46.0,0.0,30.02,WNW,290,0.0,0.0,37,-99.99,,,-99.99,,2013-02-10 17:40:00,
2013-02-10 09:48:00,46.0,0.0,30.02,WNW,294,0.0,0.0,32,-99.99,,,-99.99,,2013-02-10 17:48:00,
2013-02-10 09:56:00,47.0,0.0,30.02,NW,315,0.0,0.0,31,-99.99,,,-99.99,,2013-02-10 17:56:00,
2013-02-10 10:04:00,48.0,0.0,30.02,NW,322,3.0,6.0,31,-99.99,,,-99.99,,2013-02-10 18:04:00,
2013-02-10 10:12:00,49.0,0.0,30.02,NW,309,5.0,7.0,29,-99.99,,,-99.99,,2013-02-10 18:12:00,
2013-02-10 10:20:00,49.0,0.0,30.02,NNW,328,3.0,5.0,29,-99.99,,,-99.99,,2013-02-10 18:20:00,
2013-02-10 10:28:00,50.0,0.0,30.01,NW,314,7.0,8.0,30,-99.99,,,-99.99,,2013-02-10 18:28:00,
2013-02-10 10:36:00,51.0,0.0,30.01,WNW,302,3.0,7.0,26,-99.99,,,-99.99,,2013-02-10 18:36:00,
2013-02-10 10:44:00,52.0,0.0,30.01,NW,315,8.0,8.0,26,-99.99,,,-99.99,,2013-02-10 18:44:00,
2013-02-10 10:52:00,52.0,0.0,30.00,NW,320,6.0,8.0,23,-99.99,,,-99.99,,2013-02-10 18:52:00,
2013-02-10 11:00:00,53.0,0.0,30.00,WNW,284,0.0,5.0,28,-99.99,,,-99.99,,2013-02-10 19:00:00,
2013-02-10 11:08:00,53.0,0.0,30.00,NW,316,0.0,6.0,22,-99.99,,,-99.99,,2013-02-10 19:08:00,
2013-02-10 11:16:00,53.0,0.0,29.99,NNW,332,2.0,5.0,22,-99.99,,,-99.99,,2013-02-10 19:16:00,
2013-02-10 11:24:00,54.0,0.0,29.99,NNW,335,8.0,10.0,21,-99.99,,,-99.99,,2013-02-10 19:24:00,
2013-02-10 11:32:00,52.0,0.0,29.99,ESE,113,9.0,16.0,24,-99.99,,,-99.99,,2013-02-10 19:32:00,
2013-02-10 11:40:00,51.0,0.0,29.98,ENE,76,0.0,20.0,25,-99.99,,,-99.99,,2013-02-10 19:40:00,
2013-02-10 11:48:00,51.0,0.0,29.98,NNE,19,0.0,12.0,23,-99.99,,,-99.99,,2013-02-10 19:48:00,
2013-02-10 11:56:00,53.0,0.0,29.97,NNW,341,1.0,15.0,23,-99.99,,,-99.99,,2013-02-10 19:56:00,
2013-02-10 12:04:00,52.0,0.0,29.97,NNW,336,5.0,6.0,24,-99.99,,,-99.99,,2013-02-10 20:04:00,
2013-02-10 12:12:00,53.0,0.0,29.96,NNW,337,2.0,12.0,21,-99.99,,,-99.99,,2013-02-10 20:12:00,
2013-02-10 12:20:00,53.0,0.0,29.96,NNW,336,5.0,7.0,24,-99.99,,,-99.99,,2013-02-10 20:20:00,
2013-02-10 12:28:00,53.0,0.0,29.95,NNW,336,5.0,9.0,23,-99.99,,,-99.99,,2013-02-10 20:28:00,
2013-02-10 12:36:00,55.0,0.0,29.95,NNW,337,2.0,8.0,20,-99.99,,,-99.99,,2013-02-10 20:36:00,
2013-02-10 12:44:00,55.0,0.0,29.95,NNW,336,3.0,8.0,22,-99.99,,,-99.99,,2013-02-10 20:44:00,
2013-02-10 12:52:00,52.0,0.0,29.95,South,177,6.0,6.0,22,-99.99,,,-99.99,,2013-02-10 20:52:00,
2013-02-10 13:00:00,55.0,0.0,29.94,NNW,342,0.0,17.0,23,-99.99,,,-99.99,,2013-02-10 21:00:00,
2013-02-10 13:08:00,53.0,0.0,29.94,NNW,341,1.0,3.0,21,-99.99,,,-99.99,,2013-02-10 21:08:00,
2013-02-10 13:16:00,53.0,0.0,29.94,NNW,338,3.0,15.0,25,-99.99,,,-99.99,,2013-02-10 21:16:00,
2013-02-10 13:24:00,53.0,0.0,29.93,SSW,198,9.0,15.0,20,-99.99,,,-99.99,,2013-02-10 21:24:00,
2013-02-10 13:32:00,53.0,0.0,29.93,NNE,12,2.0,13.0,21,-99.99,,,-99.99,,2013-02-10 21:32:00,
2013-02-10 13:40:00,54.0,0.0,29.93,NNW,342,1.0,20.0,19,-99.99,,,-99.99,,2013-02-10 21:40:00,
2013-02-10 13:48:00,53.0,0.0,29.92,NE,43,3.0,20.0,21,-99.99,,,-99.99,,2013-02-10 21:48:00,
2013-02-10 13:56:00,53.0,0.0,29.92,NNE,26,0.0,14.0,20,-99.99,,,-99.99,,2013-02-10 21:56:00,
2013-02-10 14:04:00,56.0,0.0,29.91,NNW,335,2.0,7.0,19,-99.99,,,-99.99,,2013-02-10 22:04:00,
2013-02-10 14:12:00,56.0,0.0,29.91,NNW,333,2.0,6.0,19,-99.99,,,-99.99,,2013-02-10 22:12:00,
2013-02-10 14:20:00,56.0,0.0,29.91,NNW,336,3.0,10.0,20,-99.99,,,-99.99,,2013-02-10 22:20:00,
2013-02-10 14:28:00,54.0,0.0,29.91,ESE,117,15.0,18.0,19,-99.99,,,-99.99,,2013-02-10 22:28:00,
2013-02-10 14:36:00,54.0,0.0,29.90,NNW,336,3.0,7.0,20,-99.99,,,-99.99,,2013-02-10 22:36:00,
2013-02-10 14:44:00,54.0,0.0,29.90,NE,48,0.0,3.0,20,-99.99,,,-99.99,,2013-02-10 22:44:00,
2013-02-10 14:52:00,53.0,0.0,29.90,SE,138,0.0,13.0,18,-99.99,,,-99.99,,2013-02-10 22:52:00,
2013-02-10 15:00:00,54.0,0.0,29.90,NNW,332,2.0,3.0,20,-99.99,,,-99.99,,2013-02-10 23:00:00,
2013-02-10 15:08:00,54.0,0.0,29.90,NNW,335,6.0,6.0,20,-99.99,,,-99.99,,2013-02-10 23:08:00,
2013-02-10 15:16:00,53.0,0.0,29.90,NNW,334,5.0,12.0,18,-99.99,,,-99.99,,2013-02-10 23:16:00,
2013-02-10 15:24:00,53.0,0.0,29.90,NNW,333,3.0,6.0,18,-99.99,,,-99.99,,2013-02-10 23:24:00,
2013-02-10 15:32:00,53.0,0.0,29.90,NNW,336,2.0,3.0,18,-99.99,,,-99.99,,2013-02-10 23:32:00,
2013-02-10 15:40:00,54.0,0.0,29.90,NNW,333,6.0,6.0,19,-99.99,,,-99.99,,2013-02-10 23:40:00,
2013-02-10 15:48:00,54.0,0.0,29.90,NNW,335,6.0,6.0,19,-99.99,,,-99.99,,2013-02-10 23:48:00,
2013-02-10 15:56:00,54.0,0.0,29.90,NNW,336,7.0,7.0,17,-99.99,,,-99.99,,2013-02-10 23:56:00,
2013-02-10 16:04:00,54.0,0.0,29.90,NNW,333,3.0,7.0,19,-99.99,,,-99.99,,2013-02-11 00:04:00,
2013-02-10 16:12:00,53.0,0.0,29.90,NNW,333,5.0,5.0,19,-99.99,,,-99.99,,2013-02-11 00:12:00,
2013-02-10 16:20:00,53.0,0.0,29.90,NNW,336,2.0,5.0,19,-99.99,,,-99.99,,2013-02-11 00:20:00,
2013-02-10 16:28:00,53.0,0.0,29.90,NW,321,5.0,5.0,18,-99.99,,,-99.99,,2013-02-11 00:28:00,
2013-02-10 16:36:00,53.0,0.0,29.90,NW,322,6.0,7.0,18,-99.99,,,-99.99,,2013-02-11 00:36:00,
2013-02-10 16:44:00,53.0,0.0,29.89,NW,317,2.0,3.0,18,-99.99,,,-99.99,,2013-02-11 00:44:00,
2013-02-10 16:52:00,53.0,0.0,29.90,NW,311,3.0,3.0,18,-99.99,,,-99.99,,2013-02-11 00:52:00,
2013-02-10 17:00:00,53.0,0.0,29.90,NW,326,3.0,3.0,20,-99.99,,,-99.99,,2013-02-11 01:00:00,
2013-02-10 17:08:00,53.0,0.0,29.90,WNW,300,2.0,5.0,20,-99.99,,,-99.99,,2013-02-11 01:08:00,
2013-02-10 17:16:00,53.0,0.0,29.89,NW,323,2.0,3.0,20,-99.99,,,-99.99,,2013-02-11 01:16:00,
2013-02-10 17:24:00,53.0,0.0,29.89,NW,323,0.0,3.0,20,-99.99,,,-99.99,,2013-02-11 01:24:00,
2013-02-10 17:32:00,52.0,0.0,29.89,NW,324,0.0,0.0,19,-99.99,,,-99.99,,2013-02-11 01:32:00,
2013-02-10 17:40:00,51.0,0.0,29.89,NW,324,0.0,0.0,22,-99.99,,,-99.99,,2013-02-11 01:40:00,
2013-02-10 17:48:00,51.0,0.0,29.89,NW,324,0.0,0.0,21,-99.99,,,-99.99,,2013-02-11 01:48:00,
2013-02-10 17:56:00,51.0,0.0,29.90,NW,313,7.0,7.0,19,-99.99,,,-99.99,,2013-02-11 01:56:00,
2013-02-10 18:04:00,50.0,0.0,29.90,WNW,297,3.0,6.0,26,-99.99,,,-99.99,,2013-02-11 02:04:00,
2013-02-10 18:12:00,50.0,0.0,29.90,WNW,283,9.0,13.0,26,-99.99,,,-99.99,,2013-02-11 02:12:00,
2013-02-10 18:20:00,50.0,0.0,29.91,WNW,284,3.0,7.0,23,-99.99,,,-99.99,,2013-02-11 02:20:00,
2013-02-10 18:28:00,50.0,0.0,29.92,NW,309,7.0,9.0,24,-99.99,,,-99.99,,2013-02-11 02:28:00,
2013-02-10 18:36:00,50.0,0.0,29.92,NW,308,7.0,10.0,26,-99.99,,,-99.99,,2013-02-11 02:36:00,
2013-02-10 18:44:00,50.0,0.0,29.92,WNW,303,9.0,12.0,23,-99.99,,,-99.99,,2013-02-11 02:44:00,
2013-02-10 18:52:00,49.0,0.0,29.92,WNW,301,9.0,10.0,26,-99.99,,,-99.99,,2013-02-11 02:52:00,
2013-02-10 19:00:00,50.0,0.0,29.92,NW,313,12.0,14.0,26,-99.99,,,-99.99,,2013-02-11 03:00:00,
2013-02-10 19:08:00,49.0,0.0,29.94,West,262,10.0,13.0,26,-99.99,,,-99.99,,2013-02-11 03:08:00,
2013-02-10 19:16:00,50.0,0.0,29.94,WNW,282,14.0,17.0,25,-99.99,,,-99.99,,2013-02-11 03:16:00,
2013-02-10 19:24:00,50.0,0.0,29.95,West,277,9.0,16.0,25,-99.99,,,-99.99,,2013-02-11 03:24:00,
2013-02-10 19:32:00,50.0,0.0,29.95,WSW,243,18.0,22.0,27,-99.99,,,-99.99,,2013-02-11 03:32:00,
2013-02-10 19:40:00,48.0,0.0,29.95,WSW,256,18.0,26.0,35,-99.99,,,-99.99,,2013-02-11 03:40:00,
2013-02-10 19:48:00,47.0,0.0,29.96,South,184,28.0,28.0,36,-99.99,,,-99.99,,2013-02-11 03:48:00,
2013-02-10 19:56:00,46.0,0.0,29.97,WSW,256,21.0,22.0,39,-99.99,,,-99.99,,2013-02-11 03:56:00,
2013-02-10 20:04:00,46.0,0.0,29.97,West,262,17.0,25.0,42,-99.99,,,-99.99,,2013-02-11 04:04:00,
2013-02-10 20:12:00,46.0,0.0,29.99,WSW,254,15.0,23.0,45,-99.99,,,-99.99,,2013-02-11 04:12:00,
2013-02-10 20:20:00,46.0,0.0,29.99,West,266,21.0,22.0,42,-99.99,,,-99.99,,2013-02-11 04:20:00,
2013-02-10 20:28:00,46.0,0.0,29.99,West,262,17.0,22.0,42,-99.99,,,-99.99,,2013-02-11 04:28:00,
2013-02-10 20:36:00,45.0,0.0,29.99,WSW,254,15.0,22.0,44,-99.99,,,-99.99,,2013-02-11 04:36:00,
2013-02-10 20:44:00,45.0,0.0,29.99,West,270,20.0,23.0,46,-99.99,,,-99.99,,2013-02-11 04:44:00,
2013-02-10 20:52:00,45.0,0.0,30.00,West,279,13.0,22.0,46,-99.99,,,-99.99,,2013-02-11 04:52:00,
2013-02-10 21:00:00,45.0,0.0,30.00,West,263,20.0,22.0,47,-99.99,,,-99.99,,2013-02-11 05:00:00,
2013-02-10 21:04:00,45.0,0.0,30.00,West,274,21.0,22.0,49,-99.99,,,-99.99,,2013-02-11 05:04:00,
2013-02-10 21:12:00,45.0,0.0,30.00,West,277,15.0,22.0,51,-99.99,,,-99.99,,2013-02-11 05:12:00,
2013-02-10 21:16:00,44.0,0.0,30.00,West,275,16.0,21.0,47,-99.99,,,-99.99,,2013-02-11 05:16:00,
2013-02-10 21:24:00,44.0,0.0,30.00,West,275,12.0,15.0,48,-99.99,,,-99.99,,2013-02-11 05:24:00,
2013-02-10 21:32:00,44.0,0.0,30.00,SW,235,14.0,17.0,51,-99.99,,,-99.99,,2013-02-11 05:32:00,
2013-02-10 21:40:00,44.0,0.0,30.00,West,264,22.0,22.0,50,-99.99,,,-99.99,,2013-02-11 05:40:00,
2013-02-10 21:48:00,44.0,0.0,30.00,West,274,13.0,16.0,51,-99.99,,,-99.99,,2013-02-11 05:48:00,
2013-02-10 21:56:00,44.0,0.0,30.00,WSW,249,12.0,12.0,50,-99.99,,,-99.99,,2013-02-11 05:56:00,
2013-02-10 22:04:00,43.0,0.0,30.00,WSW,251,14.0,15.0,53,-99.99,,,-99.99,,2013-02-11 06:04:00,
2013-02-10 22:12:00,43.0,0.0,30.00,West,261,10.0,15.0,54,-99.99,,,-99.99,,2013-02-11 06:12:00,
2013-02-10 22:20:00,43.0,0.0,30.00,WSW,240,0.0,5.0,55,-99.99,,,-99.99,,2013-02-11 06:20:00,
2013-02-10 22:28:00,43.0,0.0,30.00,SW,220,0.0,0.0,55,-99.99,,,-99.99,,2013-02-11 06:28:00,
2013-02-10 22:36:00,43.0,0.0,30.00,SW,232,0.0,0.0,54,-99.99,,,-99.99,,2013-02-11 06:36:00,
2013-02-10 22:44:00,42.0,0.0,30.00,SSW,213,0.0,3.0,55,-99.99,,,-99.99,,2013-02-11 06:44:00,
2013-02-10 22:52:00,42.0,0.0,30.01,SSW,194,0.0,0.0,55,-99.99,,,-99.99,,2013-02-11 06:52:00,
2013-02-10 23:00:00,43.0,0.0,30.01,SW,219,0.0,0.0,52,-99.99,,,-99.99,,2013-02-11 07:00:00,
2013-02-10 23:08:00,43.0,0.0,30.01,SSW,203,0.0,0.0,50,-99.99,,,-99.99,,2013-02-11 07:08:00,
2013-02-10 23:16:00,42.0,0.0,30.01,NNW,341,0.0,0.0,52,-99.99,,,-99.99,,2013-02-11 07:16:00,
2013-02-10 23:24:00,42.0,0.0,30.01,WSW,247,0.0,0.0,50,-99.99,,,-99.99,,2013-02-11 07:24:00,
2013-02-10 23:32:00,43.0,0.0,30.01,WSW,248,0.0,3.0,45,-99.99,,,-99.99,,2013-02-11 07:32:00,
2013-02-10 23:40:00,42.0,0.0,30.02,SW,226,0.0,0.0,48,-99.99,,,-99.99,,2013-02-11 07:40:00,
2013-02-10 23:48:00,41.0,0.0,30.02,SSW,197,0.0,0.0,52,-99.99,,,-99.99,,2013-02-11 07:48:00,
2013-02-10 23:56:00,43.0,0.0,30.02,SSE,151,0.0,0.0,43,-99.99,,,-99.99,,2013-02-11 07:56:00,